Location: Bogis-Bossey
(46.3500°N, 6.1667°E)
Time: 23:17:01
(UTC+00:00)

USA 238 DEB - Pass Details

Date: 27 February 2024
Orbit: 948 x 1263 km, 63.4° (Epoch: 09 April)

Event Time Altitude Azimuth Distance (km) Brightness Sun altitude
Exits shadow 03:12:23 39° 142° (SE) 1,445 4.4 -32.5°
Maximum altitude 03:13:28 42° 117° (ESE) 1,388 4.4 -32.3°
Drops below altitude 10° 03:19:43 10° 49° (NE) 2,872 6.7 -31.3°
Sets 03:22:34 0° 43° (NE) 3,878 7.6 -30.8°
